This is the latest recevied weather packets stored in our database for station/object CE3MXM-12. If no packets are shown the sender has not sent any weather packets the latest 10 day(s).
| Time | Temp. | Humidity | Pressure | Rain* | Wind** | Luminosity | Snow |
|---|---|---|---|---|---|---|---|
| 1777855159 | 14.44° C | 76% | 1017.3 hPa | - | - | - | - |
| 1777854858 | 14.44° C | 75% | 1017.2 hPa | - | - | - | - |
| 1777854559 | 14.44° C | 73% | 1017.1 hPa | - | - | - | - |
| 1777854259 | 14.44° C | 72% | 1017.1 hPa | - | - | - | - |
| 1777853958 | 14.44° C | 71% | 1017.2 hPa | - | - | - | - |
| 1777853658 | 14.44° C | 70% | 1017.1 hPa | - | - | - | - |
| 1777853358 | 14.44° C | 68% | 1016.9 hPa | - | - | - | - |
| 1777853058 | 14.44° C | 68% | 1017.2 hPa | - | - | - | - |
| 1777852758 | 14.44° C | 67% | 1017.1 hPa | - | - | - | - |
| 1777852458 | 14.44° C | 66% | 1017 hPa | - | - | - | - |
| 1777852158 | 14.44° C | 64% | 1017.1 hPa | - | - | - | - |
| 1777851857 | 14.44° C | 63% | 1017.1 hPa | - | - | - | - |
| 1777851558 | 14.44° C | 64% | 1017.2 hPa | - | - | - | - |
| 1777851257 | 14.44° C | 62% | 1017.2 hPa | - | - | - | - |
| 1777850957 | 15° C | 60% | 1017 hPa | - | - | - | - |
| 1777850658 | 15° C | 58% | 1016.9 hPa | - | - | - | - |
| 1777850357 | 15° C | 57% | 1017 hPa | - | - | - | - |
| 1777850057 | 15° C | 53% | 1016.9 hPa | - | - | - | - |
| 1777849757 | 15° C | 51% | 1017.1 hPa | - | - | - | - |
| 1777849457 | 15.56° C | 52% | 1017.1 hPa | - | - | - | - |
| 1777849157 | 15.56° C | 50% | 1017 hPa | - | - | - | - |
| 1777848857 | 15.56° C | 48% | 1017 hPa | - | - | - | - |
| 1777848557 | 15.56° C | 46% | 1017 hPa | - | - | - | - |
| 1777848257 | 15.56° C | 42% | 1017.2 hPa | - | - | - | - |
| 1777847956 | 15.56° C | 39% | 1016.9 hPa | - | - | - | - |
* Rain since midnight (hover to see other rain measurements)
** Current wind speed in m/s (hover to see current wind gust speed)